| time (UTC) | temp F | wind direction | speed MPH | gust MPH | rain 1hr in | rain 24hr in | rain mn in | humidity % | barometer mb |
| 20260905191254 | 0 | 293 | 2.0 | 2.0 | 0.00 | 0.20 | 0.20 | 73 | 1018.1 |
| 20260905190253 | 0 | 293 | 2.0 | 2.0 | 0.00 | 0.20 | 0.20 | 73 | 1018.2 |
| 20260905185250 | 0 | 0 | 1.0 | 1.0 | 0.00 | 0.20 | 0.20 | 73 | 1018.0 |
| 20260905184247 | 0 | 270 | 3.0 | 3.0 | 0.00 | 0.20 | 0.20 | 73 | 1017.8 |
| 20260905183243 | 0 | 0 | 3.0 | 3.0 | 0.00 | 0.20 | 0.20 | 73 | 1017.7 |
| 20260905182240 | 0 | 293 | 3.0 | 3.0 | 0.00 | 0.20 | 0.20 | 71 | 1017.5 |
| 20260905181237 | 0 | 293 | 2.0 | 2.0 | 0.00 | 0.20 | 0.20 | 71 | 1017.3 |
| 20260905180237 | 0 | 338 | 2.0 | 2.0 | 0.00 | 0.20 | 0.20 | 70 | 1017.2 |
| 20260905175236 | 0 | 315 | 2.0 | 2.0 | 0.00 | 0.20 | 0.20 | 70 | 1016.9 |
| 20260905174233 | 0 | 293 | 2.0 | 2.0 | 0.00 | 0.20 | 0.20 | 70 | 1016.8 |
| 20260905173231 | 0 | 293 | 4.0 | 5.0 | 0.00 | 0.20 | 0.20 | 69 | 1016.5 |
| 20260905172228 | 0 | 293 | 6.0 | 8.0 | 0.00 | 0.20 | 0.20 | 69 | 1016.3 |
| 20260905171226 | 0 | 0 | 8.0 | 8.0 | 0.00 | 0.20 | 0.20 | 69 | 1016.2 |
| 20260905170225 | 0 | 293 | 6.0 | 9.0 | 0.00 | 0.20 | 0.20 | 69 | 1016.0 |
| 20260905165224 | 0 | 0 | 4.0 | 6.0 | 0.00 | 0.20 | 0.20 | 69 | 1015.8 |
| 20260905164222 | 0 | 315 | 5.0 | 6.0 | 0.00 | 0.20 | 0.20 | 69 | 1015.3 |
| 20260905163219 | 0 | 0 | 5.0 | 5.0 | 0.00 | 0.20 | 0.20 | 69 | 1015.6 |
| 20260905162216 | 0 | 293 | 9.0 | 9.0 | 0.00 | 0.20 | 0.20 | 68 | 1015.5 |
| 20260905161212 | 0 | 293 | 5.0 | 7.0 | 0.00 | 0.20 | 0.20 | 66 | 1015.4 |
| 20260905160210 | 0 | 315 | 7.0 | 8.0 | 0.00 | 0.20 | 0.20 | 65 | 1015.3 |
| 20260905155210 | 0 | 338 | 5.0 | 6.0 | 0.00 | 0.20 | 0.20 | 64 | 1015.1 |
| 20260905154206 | 0 | 315 | 9.0 | 13.0 | 0.00 | 0.20 | 0.20 | 63 | 1015.0 |
| 20260905153204 | 0 | 315 | 11.0 | 14.0 | 0.00 | 0.20 | 0.20 | 62 | 1015.1 |
| 20260905152201 | 0 | 270 | 4.0 | 6.0 | 0.00 | 0.20 | 0.20 | 63 | 1015.0 |
| 20260905151158 | 0 | 0 | 11.0 | 13.0 | 0.00 | 0.20 | 0.20 | 62 | 1015.1 |
| 20260905150158 | 0 | 338 | 15.0 | 19.0 | 0.00 | 0.20 | 0.20 | 62 | 1015.1 |
| 20260905145154 | 0 | 0 | 8.0 | 11.0 | 0.00 | 0.20 | 0.20 | 61 | 1014.9 |
| 20260905144151 | 0 | 315 | 9.0 | 13.0 | 0.00 | 0.20 | 0.20 | 60 | 1014.6 |
| 20260905143147 | 0 | 293 | 3.0 | 3.0 | 0.00 | 0.20 | 0.20 | 61 | 1015.0 |
| 20260905142143 | 0 | 293 | 11.0 | 12.0 | 0.00 | 0.20 | 0.20 | 60 | 1015.1 |
| 20260905141142 | 0 | 293 | 10.0 | 14.0 | 0.00 | 0.20 | 0.20 | 60 | 1015.0 |
| 20260905140141 | 0 | 315 | 7.0 | 10.0 | 0.00 | 0.20 | 0.20 | 60 | 1015.1 |
| 20260905135138 | 0 | 0 | 6.0 | 6.0 | 0.00 | 0.20 | 0.20 | 59 | 1015.2 |
| 20260905134137 | 0 | 270 | 5.0 | 8.0 | 0.00 | 0.20 | 0.20 | 59 | 1015.0 |
| 20260905133135 | 0 | 270 | 9.0 | 11.0 | 0.00 | 0.20 | 0.20 | 59 | 1015.4 |
| 20260905132132 | 0 | 270 | 9.0 | 11.0 | 0.00 | 0.20 | 0.20 | 59 | 1015.3 |
| 20260905131131 | 0 | 225 | 3.0 | 5.0 | 0.00 | 0.20 | 0.20 | 57 | 1015.1 |
| 20260905130127 | 0 | 315 | 10.0 | 13.0 | 0.00 | 0.20 | 0.20 | 59 | 1015.3 |
| 20260905125124 | 0 | 293 | 14.0 | 18.0 | 0.00 | 0.20 | 0.20 | 58 | 1015.3 |
| 20260905124123 | 0 | 270 | 7.0 | 10.0 | 0.00 | 0.20 | 0.20 | 58 | 1015.3 |
| 20260905123119 | 0 | 338 | 8.0 | 13.0 | 0.00 | 0.20 | 0.20 | 57 | 1015.3 |
| 20260905122115 | 0 | 293 | 11.0 | 16.0 | 0.00 | 0.20 | 0.20 | 60 | 1015.7 |
| 20260905121111 | 0 | 293 | 11.0 | 13.0 | 0.00 | 0.20 | 0.20 | 60 | 1015.4 |
| 20260905120110 | 0 | 338 | 16.0 | 18.0 | 0.00 | 0.20 | 0.20 | 60 | 1015.5 |
| 20260905115107 | 0 | 293 | 13.0 | 15.0 | 0.00 | 0.20 | 0.20 | 62 | 1015.9 |
| 20260905114107 | 0 | 293 | 12.0 | 15.0 | 0.00 | 0.20 | 0.20 | 59 | 1015.6 |
| 20260905113107 | 0 | 270 | 7.0 | 9.0 | 0.00 | 0.20 | 0.20 | 61 | 1015.6 |
| 20260905112103 | 0 | 293 | 7.0 | 8.0 | 0.00 | 0.20 | 0.20 | 60 | 1015.6 |
| 20260905111059 | 0 | 293 | 13.0 | 18.0 | 0.00 | 0.20 | 0.20 | 61 | 1015.5 |
| 20260905110059 | 0 | 293 | 13.0 | 16.0 | 0.00 | 0.20 | 0.20 | 61 | 1015.7 |
| 20260905105058 | 0 | 293 | 5.0 | 6.0 | 0.01 | 0.19 | 0.20 | 62 | 1015.7 |
| 20260905104057 | 0 | 0 | 12.0 | 14.0 | 0.01 | 0.19 | 0.20 | 63 | 1015.8 |
| 20260905103055 | 0 | 293 | 5.0 | 5.0 | 0.01 | 0.19 | 0.20 | 65 | 1015.7 |
| 20260905102052 | 0 | 293 | 7.0 | 9.0 | 0.01 | 0.19 | 0.20 | 64 | 1015.9 |
| 20260905101050 | 0 | 338 | 10.0 | 12.0 | 0.00 | 0.19 | 0.19 | 66 | 1016.0 |
| 20260905100046 | 0 | 293 | 9.0 | 11.0 | 0.00 | 0.19 | 0.19 | 64 | 1016.0 |
| 20260905095046 | 0 | 338 | 6.0 | 8.0 | 0.00 | 0.19 | 0.19 | 63 | 1016.0 |
| 20260905094044 | 0 | 315 | 8.0 | 12.0 | 0.00 | 0.19 | 0.19 | 64 | 1016.2 |
| 20260905093042 | 0 | 315 | 2.0 | 2.0 | 0.00 | 0.19 | 0.19 | 60 | 1016.4 |
| 20260905092040 | 0 | 338 | 8.0 | 11.0 | 0.00 | 0.19 | 0.19 | 53 | 1016.4 |
| 20260905091038 | 0 | 0 | 6.0 | 7.0 | 0.00 | 0.19 | 0.19 | 45 | 1016.3 |
| 20260905090033 | 0 | 270 | 8.0 | 10.0 | 0.00 | 0.19 | 0.19 | 44 | 1016.2 |
| 20260905085032 | 0 | 338 | 7.0 | 8.0 | 0.00 | 0.19 | 0.19 | 42 | 1016.2 |
| 20260905084035 | 0 | 293 | 13.0 | 16.0 | 0.00 | 0.19 | 0.19 | 47 | 1016.3 |
| 20260905083030 | 0 | 270 | 8.0 | 9.0 | 0.00 | 0.19 | 0.19 | 42 | 1016.2 |
| 20260905082029 | 0 | 293 | 4.0 | 7.0 | 0.00 | 0.19 | 0.19 | 48 | 1016.2 |
| 20260905081027 | 0 | 248 | 8.0 | 9.0 | 0.00 | 0.19 | 0.19 | 64 | 1016.4 |
| 20260905080025 | 0 | 293 | 6.0 | 8.0 | 0.00 | 0.19 | 0.19 | 61 | 1016.3 |
| 20260905075020 | 0 | 293 | 4.0 | 7.0 | 0.00 | 0.19 | 0.19 | 62 | 1016.3 |
| 20260905074018 | 0 | 338 | 5.0 | 6.0 | 0.00 | 0.19 | 0.19 | 75 | 1016.2 |
| 20260905073014 | 0 | 315 | 3.0 | 4.0 | 0.00 | 0.19 | 0.19 | 82 | 1016.0 |
| 20260905072014 | 0 | 293 | 6.0 | 6.0 | 0.00 | 0.19 | 0.19 | 83 | 1015.9 |
| 20260905071014 | 0 | 293 | 3.0 | 4.0 | 0.00 | 0.19 | 0.19 | 83 | 1015.8 |
| 20260905070013 | 0 | 293 | 4.0 | 5.0 | 0.00 | 0.19 | 0.19 | 85 | 1016.0 |
| 20260905065012 | 0 | 338 | 4.0 | 5.0 | 0.00 | 0.19 | 0.19 | 90 | 1016.1 |
| 20260905064008 | 0 | 338 | 5.0 | 5.0 | 0.00 | 0.19 | 0.19 | 92 | 1016.3 |
| 20260905063004 | 0 | 315 | 5.0 | 7.0 | 0.00 | 0.19 | 0.19 | 93 | 1016.1 |
| 20260905062000 | 0 | 0 | 3.0 | 3.0 | 0.00 | 0.19 | 0.19 | 93 | 1016.4 |
| 20260905060958 | 0 | 315 | 3.0 | 3.0 | 0.00 | 0.19 | 0.19 | 94 | 1016.0 |
| 20260905055953 | 0 | 0 | 3.0 | 4.0 | 0.07 | 0.12 | 0.19 | 94 | 1015.6 |
| 20260905054952 | 0 | 293 | 6.0 | 7.0 | 0.07 | 0.12 | 0.19 | 95 | 1015.7 |
| 20260905053951 | 0 | 225 | 3.0 | 4.0 | 0.07 | 0.12 | 0.19 | 95 | 1015.2 |
| 20260905052946 | 0 | 248 | 2.0 | 2.0 | 0.06 | 0.12 | 0.18 | 92 | 1015.6 |
| 20260905051941 | 0 | 338 | 4.0 | 4.0 | 0.04 | 0.12 | 0.16 | 92 | 1015.7 |
| 20260905050940 | 0 | 293 | 5.0 | 6.0 | 0.03 | 0.12 | 0.15 | 92 | 1015.8 |
| 20260905045940 | 0 | 293 | 6.0 | 7.0 | 0.07 | 0.04 | 0.12 | 93 | 1015.5 |
| 20260905044939 | 0 | 315 | 5.0 | 7.0 | 0.03 | 0.04 | 0.07 | 91 | 1015.8 |
| 20260905043932 | 0 | 293 | 7.0 | 9.0 | 0.01 | 0.04 | 0.06 | 89 | 1015.5 |
| 20260905042931 | 0 | 338 | 3.0 | 4.0 | 0.00 | 0.04 | 0.04 | 88 | 1014.9 |
| 20260905041927 | 0 | 338 | 4.0 | 5.0 | 0.00 | 0.04 | 0.04 | 90 | 1015.2 |
| 20260905040923 | 0 | 0 | 5.0 | 6.0 | 0.00 | 0.04 | 0.04 | 90 | 1014.8 |
| 20260905035922 | 0 | 293 | 4.0 | 4.0 | 0.03 | 0.01 | 0.04 | 91 | 1014.4 |
| 20260905034921 | 0 | 338 | 2.0 | 2.0 | 0.03 | 0.01 | 0.04 | 89 | 1013.8 |
| 20260905033920 | 0 | 315 | 1.0 | 1.0 | 0.01 | 0.01 | 0.03 | 89 | 1014.0 |
| 20260905032916 | 0 | 293 | 5.0 | 5.0 | 0.01 | 0.01 | 0.03 | 89 | 1014.5 |
| 20260905031915 | 0 | 338 | 3.0 | 3.0 | 0.01 | 0.01 | 0.03 | 89 | 1013.7 |
| 20260905030913 | 0 | 338 | 2.0 | 3.0 | 0.01 | 0.01 | 0.03 | 89 | 1013.4 |
| 20260905025911 | 0 | 315 | 4.0 | 5.0 | 0.01 | 0.00 | 0.01 | 89 | 1013.7 |
| 20260905024910 | 0 | 293 | 4.0 | 5.0 | 0.00 | 0.00 | 0.00 | 88 | 1013.9 |
| 20260905023909 | 0 | 0 | 3.0 | 3.0 | 0.00 | 0.00 | 0.00 | 87 | 1013.3 |
| 20260905022907 | 0 | 293 | 4.0 | 4.0 | 0.00 | 0.00 | 0.00 | 87 | 1013.2 |
| 20260905021904 | 0 | 0 | 3.0 | 3.0 | 0.00 | 0.00 | 0.00 | 88 | 1012.9 |
| 20260905020901 | 0 | 293 | 7.0 | 8.0 | 0.00 | 0.00 | 0.00 | 87 | 1012.7 |
| 20260905015900 | 0 | 293 | 3.0 | 3.0 | 0.00 | 0.00 | 0.00 | 86 | 1012.9 |
| 20260905014856 | 0 | 315 | 4.0 | 5.0 | 0.00 | 0.00 | 0.00 | 85 | 1012.3 |
| 20260905013855 | 0 | 293 | 5.0 | 6.0 | 0.00 | 0.00 | 0.00 | 85 | 1012.1 |
| 20260905012851 | 0 | 0 | 4.0 | 5.0 | 0.00 | 0.00 | 0.00 | 84 | 1012.3 |
| 20260905011849 | 0 | 293 | 6.0 | 7.0 | 0.00 | 0.00 | 0.00 | 85 | 1012.2 |
| 20260905010844 | 0 | 315 | 8.0 | 11.0 | 0.00 | 0.00 | 0.00 | 84 | 1012.2 |
| 20260905005842 | 0 | 293 | 5.0 | 6.0 | 0.00 | 0.00 | 0.00 | 83 | 1012.0 |
| 20260905004840 | 0 | 0 | 11.0 | 13.0 | 0.00 | 0.00 | 0.00 | 82 | 1012.0 |
| 20260905003838 | 0 | 293 | 9.0 | 11.0 | 0.00 | 0.00 | 0.00 | 82 | 1011.7 |
| 20260905002837 | 0 | 270 | 6.0 | 8.0 | 0.00 | 0.00 | 0.00 | 83 | 1011.5 |
| 20260905001834 | 0 | 0 | 8.0 | 16.0 | 0.00 | 0.00 | 0.00 | 84 | 1011.1 |
| 20260905000831 | 0 | 293 | 12.0 | 16.0 | 0.00 | 0.00 | 0.00 | 84 | 1011.0 |
| 20260904235827 | 0 | 270 | 15.0 | 18.0 | 0.00 | 0.00 | 0.00 | 82 | 1010.7 |
| 20260904234826 | 0 | 270 | 15.0 | 21.0 | 0.00 | 0.00 | 0.00 | 81 | 1009.7 |
| 20260904233824 | 0 | 0 | 8.0 | 9.0 | 0.00 | 0.00 | 0.00 | 79 | 1009.0 |
| 20260904232823 | 0 | 315 | 4.0 | 4.0 | 0.00 | 0.00 | 0.00 | 81 | 1008.9 |
| 20260904231820 | 0 | 270 | 2.0 | 2.0 | 0.00 | 0.00 | 0.00 | 81 | 1009.1 |
| 20260904230817 | 0 | 270 | 0.0 | 0.0 | 0.00 | 0.00 | 0.00 | 83 | 1009.2 |
| 20260904225813 | 0 | 315 | 1.0 | 1.0 | 0.00 | 0.00 | 0.00 | 84 | 1009.2 |
| 20260904224811 | 0 | 225 | 0.0 | 0.0 | 0.00 | 0.00 | 0.00 | 85 | 1009.2 |
| 20260904223808 | 0 | 315 | 0.0 | 0.0 | 0.00 | 0.00 | 0.00 | 85 | 1009.2 |
| 20260904222807 | 0 | 315 | 1.0 | 1.0 | 0.00 | 0.00 | 0.00 | 85 | 1009.2 |
| 20260904221804 | 0 | 315 | 0.0 | 0.0 | 0.00 | 0.00 | 0.00 | 85 | 1009.2 |
| 20260904220803 | 0 | 315 | 0.0 | 0.0 | 0.00 | 0.00 | 0.00 | 83 | 1009.2 |
| 20260904215759 | 0 | 315 | 0.0 | 0.0 | 0.00 | 0.00 | 0.00 | 83 | 1009.1 |
| 20260904214755 | 0 | 135 | 0.0 | 0.0 | 0.00 | 0.00 | 0.00 | 82 | 1009.1 |
| 20260904213751 | 0 | 135 | 0.0 | 0.0 | 0.00 | 0.00 | 0.00 | 83 | 1009.0 |
| 20260904212747 | 0 | 315 | 0.0 | 0.0 | 0.00 | 0.00 | 0.00 | 82 | 1009.0 |
| 20260904211746 | 0 | 315 | 0.0 | 0.0 | 0.00 | 0.00 | 0.00 | 80 | 1008.9 |
| 20260904210744 | 0 | 270 | 0.0 | 0.0 | 0.00 | 0.00 | 0.00 | 80 | 1008.8 |
| 20260904205741 | 0 | 225 | 0.0 | 0.0 | 0.00 | 0.00 | 0.00 | 79 | 1008.8 |
| 20260904204738 | 0 | 270 | 0.0 | 0.0 | 0.00 | 0.00 | 0.00 | 78 | 1008.8 |
| 20260904203737 | 0 | 225 | 0.0 | 0.0 | 0.00 | 0.00 | 0.00 | 77 | 1008.7 |
| 20260904202736 | 0 | 225 | 0.0 | 0.0 | 0.00 | 0.00 | 0.00 | 77 | 1008.6 |
| 20260904201734 | 0 | 270 | 0.0 | 0.0 | 0.00 | 0.00 | 0.00 | 76 | 1008.7 |
| 20260904200732 | 0 | 270 | 0.0 | 0.0 | 0.00 | 0.00 | 0.00 | 76 | 1008.8 |
| 20260904195728 | 0 | 270 | 0.0 | 0.0 | 0.00 | 0.00 | 0.00 | 77 | 1008.7 |
| 20260904194726 | 0 | 225 | 1.0 | 1.0 | 0.00 | 0.00 | 0.00 | 77 | 1008.7 |
| 20260904193725 | 0 | 248 | 1.0 | 1.0 | 0.00 | 0.00 | 0.00 | 77 | 1008.7 |
| 20260904192725 | 0 | 180 | 2.0 | 2.0 | 0.00 | 0.00 | 0.00 | 78 | 1008.6 |
| 20260904191722 | 0 | 225 | 2.0 | 2.0 | 0.00 | 0.00 | 0.00 | 77 | 1008.9 |